This is the latest recevied weather packets stored in our database for station/object VE7KNL-13. If no packets are shown the sender has not sent any weather packets the latest 10 day(s).
| Time | Temp. | Humidity | Pressure | Rain* | Wind** | Luminosity | Snow |
|---|---|---|---|---|---|---|---|
| 1777783217 | 12.78° C | 57% | 1012 hPa | 0 mm | - | - | - |
| 1777782017 | 13.89° C | 56% | 1011.5 hPa | 0 mm | - | - | - |
| 1777779617 | 15° C | 53% | 1011 hPa | 0 mm | - | - | - |
| 1777777817 | 16.67° C | 48% | 1010.4 hPa | 0 mm | - | - | - |
| 1777770017 | 24.44° C | 25% | 1009.8 hPa | 0 mm | - | - | - |
| 1777768817 | 24.44° C | 26% | 1010.1 hPa | 0 mm | - | - | - |
| 1777759816 | 25° C | 26% | 1011.8 hPa | 0 mm | - | - | - |
| 1777752618 | 23.89° C | 29% | 1012.9 hPa | 0 mm | - | - | - |
| 1777752018 | 24.44° C | 28% | 1013 hPa | 0 mm | - | - | - |
| 1777746618 | 22.78° C | 35% | 1013.8 hPa | 0 mm | - | - | - |
| 1777744838 | 22.22° C | 35% | 1014.3 hPa | 0 mm | - | - | - |
| 1777741217 | 19.44° C | 41% | 1014.8 hPa | 0 mm | - | - | - |
| 1777737017 | 15° C | 52% | 1015.3 hPa | 0 mm | - | - | - |
| 1777732217 | 8.89° C | 79% | 1015.4 hPa | 0 mm | - | - | - |
| 1777731619 | 7.78° C | 84% | 1015.3 hPa | 0 mm | - | - | - |
| 1777729257 | 5.56° C | 87% | 1015.6 hPa | 0 mm | - | - | - |
| 1777728617 | 5° C | 87% | 1015.5 hPa | 0 mm | - | - | - |
| 1777727417 | 5° C | 88% | 1015.3 hPa | 0 mm | - | - | - |
| 1777725637 | 4.44° C | 87% | 1015.2 hPa | 0 mm | - | - | - |
| 1777723217 | 5° C | 86% | 1015.4 hPa | 0 mm | - | - | - |
| 1777721417 | 5° C | 85% | 1015.4 hPa | 0 mm | - | - | - |
| 1777717217 | 5.56° C | 83% | 1015.3 hPa | 0 mm | - | - | - |
| 1777715417 | 5.56° C | 82% | 1015.2 hPa | 0 mm | - | - | - |
| 1777714817 | 5.56° C | 81% | 1015.1 hPa | 0 mm | - | - | - |
| 1777710637 | 7.22° C | 77% | 1015.2 hPa | 0 mm | - | - | - |
* Rain latest hour (hover to see other rain measurements)
** Current wind speed in m/s (hover to see current wind gust speed)